Terminal Aerodrome Forecast
Issued by NWS

Current Version | Previous Version | Text Only | Print | Product List | Glossary Off
Versions: 1 2 3 4 5 6 7 8 9 10 11 12 13 14 15

000
FTUS41 KPBZ 101700
TAFHLG
TAF
KHLG 101733Z 1018/1118 06005KT P6SM BKN035
     FM110900 VRB03KT 4SM BR SCT250
     FM111300 02002KT P6SM SCT050=

USA.gov is the U.S. government's official web portal to all federal, state and local government web resources and services.